sat.trackr.live / text

‹ back to catalog

STARLINK-11725 [DTC]

NORAD 64125 · 2025-111C

PAYLOAD ACTIVE UNKNOWN

§ Identity

Operator
Country
US
Launch date
2025-05-24
Launch site
AFETR
Launch vehicle
Mass (kg)
RCS (m²)

Purposes: comms

External: N2YO · Heavens-Above · Gunter

§ Orbital elements

Epoch: 2026-09-20T22:13:03.521280Z

Period
91.67 min
Inclination
42.9993°
Eccentricity
0.0001398
Mean motion
15.70856035 rev/d
Perigee alt
355.5 km
Apogee alt
357.4 km
Semi-major
6,734.6 km
B*
1.0144e-3
RAAN
237.1240°
Arg perigee
279.6097°
Mean anomaly
80.4613°
Rev number
7,734

§ Raw data

STARLINK-11725 [DTC]1 64125U 25111C   26263.92573520  .00131890  00000+0  10144-2 0  99932 64125  42.9993 237.1240 0001398 279.6097  80.4613 15.70856035 77349

JSON: /api/v1/satellites/64125 · /tle

For live sub-satellite position, see the globe view (requires WebGL).

§ Visibility from observer

Set your observer location to see the next 7 days of passes ≥ 10°. The values pass through the URL so the page stays shareable.

No JS? Fill the form by hand. The geolocation button needs JavaScript.